#timestamp,LO_Frequency,Hit 
1502024415.4,286046997.2,N
1502024435.3,286046999.5,N
1502024455.1,286047001.0,N
1502024475.8,286047000.2,N
1502024495.7,286047002.3,N
1502024515.5,286047002.4,N
1502024535.3,286047001.4,N
1502024555.2,286047001.9,N
1502024575.9,286047001.5,N
1502024595.7,286047000.4,N
1502024615.6,286047000.2,N
1502024635.4,286047000.5,N
1502024655.2,286047001.2,N
1502024675.1,286047001.0,N
1502024676.0,286047001.0,N
1502024695.8,286047000.5,N
1502024715.6,286047000.0,N
1502024735.5,286047000.5,N
1502024755.3,286047000.4,N
1502024775.1,286047000.4,N
1502024795.8,286047000.7,N
1502024815.7,286047001.2,N
1502024835.5,286047001.1,N
1502024855.3,286046999.4,N
1502024875.2,286046996.9,N
1502024895.9,286046999.6,N
1502024915.7,286046996.5,N
1502024935.6,286046999.5,N
1502024955.4,286046996.8,N
1502024975.2,286046997.0,N
1502024995.1,286046994.9,P
1502024996.0,286046994.9,N
1502025015.8,286046995.6,N
1502025035.6,286046995.2,N
1502025055.5,286046997.9,N
1502025075.3,286046996.4,N
1502025095.1,286046995.9,N
1502025115.9,286046995.6,N
1502025135.7,286046997.5,N
1502025155.5,286046997.7,N
1502025175.3,286046996.9,N
1502025195.2,286046995.2,P
1502025215.0,286046999.3,N
1502025215.9,286046999.3,N
1502025235.8,286046999.4,N
1502025255.6,286046998.8,N
1502025275.4,286047000.3,N
1502025295.2,286047001.6,N
1502025315.1,286046999.9,N
1502025316.0,286046999.9,N
1502025335.8,286047000.4,N
1502025355.6,286047002.0,N
1502025375.5,286047001.6,N
1502025395.3,286047002.7,N
1502025415.1,286047002.1,N
1502025435.9,286047005.8,N
1502025455.7,286047003.3,N
1502025475.5,286047002.4,N
1502025495.4,286046998.7,N
1502025515.2,286046998.3,N
1502025535.0,286047000.6,N
1502025535.9,286047000.6,N
1502025555.8,286047003.1,N
1502025575.6,286047004.3,N
1502025595.4,286047005.9,N
1502025615.3,286047005.4,N
1502025635.1,286047007.2,N
1502025636.0,286047007.2,N
1502025655.8,286047004.4,N
1502025675.7,286047002.0,N
1502025695.5,286047001.9,N
1502025715.3,286047001.5,N
1502025735.1,286047003.4,N
1502025755.9,286047003.7,N
1502025775.7,286047003.2,N
1502025795.5,286047003.5,N
1502025815.4,286047006.0,N
1502025835.2,286047003.2,N
1502025855.0,286047007.6,P
1502025855.9,286047007.6,P
1502025875.8,286047001.5,N
1502025895.6,286047001.7,N
1502025915.4,286047000.1,N
1502025935.3,286047000.2,N
1502025955.1,286046998.2,N
1502025975.8,286047000.9,N
1502025995.7,286046998.2,N
1502026015.5,286046999.9,N
1502026035.3,286047001.2,N
1502026055.2,286047002.7,N
1502026075.9,286047002.1,N
1502026095.7,286047003.9,N
1502026115.6,286047003.0,N
1502026135.4,286047003.5,N
1502026155.2,286047003.8,N
1502026175.0,286047004.2,N
1502026176.0,286047004.2,N
1502026195.8,286047003.9,N
1502026215.6,286047003.0,N
1502026235.4,286047004.4,N
1502026255.3,286047003.8,N
1502026275.1,286047004.2,N
1502026295.8,286047000.3,N
1502026315.7,286047002.8,N
1502026335.5,286047002.1,N
1502026355.3,286046998.4,N
1502026375.2,286046998.3,N
1502026395.9,286046998.1,N
1502026415.7,286046999.3,N
1502026435.6,286046997.7,N
1502026455.4,286046997.1,N
1502026475.2,286046999.2,N
1502026495.1,286046997.4,N
1502026496.0,286046997.4,N
1502026515.8,286046996.2,N
1502026535.6,286046996.2,N
1502026555.4,286046995.8,N
1502026575.3,286046995.5,N
1502026595.1,286046994.9,N
1502026615.8,286046995.1,N
1502026635.7,286046997.7,N
1502026655.5,286047001.0,N
1502026675.3,286046998.8,N
1502026695.2,286046998.4,N
1502026715.9,286046999.2,N
1502026735.7,286046997.7,N
1502026755.6,286046999.0,N
1502026775.4,286046998.6,N
1502026795.2,286046998.4,N
1502026815.1,286046998.8,N
1502026816.0,286046998.8,N
1502026835.8,286046997.0,N
1502026855.6,286046994.9,N
1502026875.5,286046995.4,N
1502026895.3,286046998.4,N
1502026915.1,286046999.3,N
1502026935.8,286046999.2,N
1502026955.7,286046997.6,N
1502026975.5,286046993.3,P
1502026995.3,286046996.8,N
1502027015.2,286046997.0,N
1502027035.0,286046996.5,N
1502027035.9,286046996.5,N
1502027055.7,286046998.7,N
1502027075.6,286047002.8,N
1502027095.4,286046999.9,N
1502027115.2,286047001.6,N
1502027135.1,286047002.5,N
1502027136.0,286047002.5,N
1502027155.8,286047002.7,N
1502027175.6,286047001.0,N
1502027195.5,286047000.9,N
1502027215.3,286047001.9,N
1502027235.1,286047004.3,N
1502027255.9,286047005.5,N
1502027275.7,286047004.7,N
1502027295.5,286047001.8,N
1502027315.4,286047003.8,N
1502027335.2,286047003.0,N
1502027355.0,286047007.0,N
1502027355.9,286047007.0,N
1502027375.7,286047006.6,N
1502027395.6,286047005.1,N
1502027415.4,286047005.4,N
1502027435.2,286047005.7,N
1502027455.1,286047007.6,N
1502027456.0,286047007.6,N
1502027475.8,286047008.7,N
1502027495.6,286047006.7,N
1502027515.5,286047009.0,N
1502027535.3,286047008.7,N
1502027555.1,286047009.9,N
1502027575.9,286047011.8,P
1502027595.7,286047007.3,N
1502027615.5,286047007.3,N
1502027635.4,286047004.7,N
1502027655.2,286047004.7,N
1502027675.0,286047005.9,N
1502027675.9,286047005.9,N
1502027695.8,286047006.8,N
1502027715.6,286047008.5,P
1502027735.4,286047002.9,N
1502027755.3,286047005.1,N
1502027775.1,286047009.2,P
1502027795.8,286047000.5,N
1502027815.7,286046998.3,N
1502027835.5,286046998.2,N
1502027855.3,286046998.7,N
1502027875.2,286047000.4,N
1502027895.0,286046998.2,N
1502027895.9,286046998.2,N
1502027915.7,286046999.1,N
1502027935.6,286047002.3,N
1502027955.4,286047002.1,N
1502027975.2,286046999.8,N
1502027995.1,286047002.5,N
1502027996.0,286047002.5,N
